Wautoma, WI

1:05 PM CDT on September 25, 2017 (GMT -0500)
Wautoma

Weather History for KY50 - September, 2012

Change the Weather History Date:

Monday, September 17, 2012

  Actual Average (KPCZ) Record (KPCZ)
Temperature  
Mean Temperature 56 °F -  
Max Temperature 66 °F 69 °F 93 °F (1955)
Min Temperature 47 °F 49 °F 32 °F (1959)
Degree Days  
Heating Degree Days 8    
Growing Degree Days 6 (Base 50)    
Moisture  
Dew Point 50 °F    
Average Humidity 80    
Maximum Humidity 94    
Minimum Humidity 52    
Precipitation  
Precipitation 0.04 in - - ()
Sea Level Pressure  
Sea Level Pressure 29.86 in    
Wind  
Wind Speed 3 mph (NNW)    
Max Wind Speed 14 mph    
Max Gust Speed 18 mph    
Visibility 9 miles    
Events Rain    
Averages and records for this station are not official NWS values.
T = Trace of Precipitation, MM = Missing Value Source: NWS Daily Summary

Daily Weather History Graph

Daily Weather History Graph

Search for Another Location

Airport or City:

Trip Planner

Search our weather history database for the weather conditions in past years. The results will help you decide how hot, cold, wet, or windy it might be!

Date:

Astronomy

Sep. 17, 2012 Rise Set
Actual Time 6:39 AM CDT 7:02 PM CDT
Civil Twilight 6:10 AM CDT 7:31 PM CDT
Nautical Twilight 5:36 AM CDT 8:05 PM CDT
Astronomical Twilight 5:00 AM CDT 8:40 PM CDT
Moon 8:34 AM CDT (9/17) 7:37 PM CDT (9/17)
Length of Visible Light 13h 21m
Length of Day
12h 23m
Waxing Crescent, 3% of the Moon is Illuminated
Sep 17
Waxing Crescent
Sep 22
First Quarter
Sep 29
Full
Oct 8
Last Quarter
Oct 15
New

Hourly Weather History & Observations

Time (CDT) Temp. Dew Point Humidity Pressure Visibility Wind Dir Wind Speed Gust Speed Precip Events Conditions
12:56 AM 55.9 °F 45.9 °F 69% 29.89 in 10.0 mi Calm Calm - N/A   Partly Cloudy
1:56 AM 54.9 °F 45.9 °F 72% 29.88 in 10.0 mi Calm Calm - N/A   Scattered Clouds
2:56 AM 52.9 °F 45.9 °F 77% 29.85 in 10.0 mi Calm Calm - N/A   Scattered Clouds
3:56 AM 50.9 °F 46.9 °F 86% 29.84 in 10.0 mi Calm Calm - N/A   Mostly Cloudy
4:56 AM 50.0 °F 45.9 °F 86% 29.84 in 10.0 mi Calm Calm - N/A   Partly Cloudy
5:56 AM 50.9 °F 46.9 °F 86% 29.85 in 10.0 mi Calm Calm - N/A   Overcast
6:56 AM 52.9 °F 48.9 °F 86% 29.86 in 10.0 mi Calm Calm - N/A   Overcast
7:56 AM 57.9 °F 52.9 °F 83% 29.87 in 10.0 mi Calm Calm - N/A   Mostly Cloudy
8:56 AM 61.9 °F 50.0 °F 65% 29.86 in 10.0 mi North 6.9 mph - N/A   Overcast
9:56 AM 63.9 °F 50.0 °F 61% 29.85 in 10.0 mi NE 4.6 mph - N/A   Mostly Cloudy
10:56 AM 65.8 °F 48.9 °F 54% 29.86 in 10.0 mi Calm Calm - N/A   Scattered Clouds
11:56 AM 66.9 °F 48.9 °F 52% 29.85 in 10.0 mi WNW 4.6 mph - N/A   Mostly Cloudy
12:56 PM 66.9 °F 50.0 °F 54% 29.84 in 10.0 mi WNW 11.5 mph - N/A   Mostly Cloudy
1:56 PM 63.0 °F 50.9 °F 65% 29.86 in 10.0 mi NW 11.5 mph - N/A   Overcast
2:09 PM 60.8 °F 51.8 °F 72% 29.86 in 10.0 mi WNW 13.8 mph - N/A   Overcast
2:56 PM 59.0 °F 50.9 °F 74% 29.87 in 10.0 mi NW 13.8 mph 18.4 mph N/A   Overcast
3:56 PM 55.9 °F 54.0 °F 93% 29.84 in 4.0 mi NNW 4.6 mph - 0.02 in Rain Light Rain
4:13 PM 55.4 °F 53.6 °F 94% 29.84 in 6.0 mi NW 9.2 mph - 0.01 in Rain Light Rain
4:28 PM 55.4 °F 53.6 °F 94% 29.84 in 6.0 mi NW 6.9 mph - 0.01 in Rain Light Rain
4:38 PM 55.4 °F 53.6 °F 94% 29.85 in 8.0 mi NW 9.2 mph - 0.01 in Rain Light Rain
4:56 PM 54.9 °F 52.9 °F 93% 29.85 in 6.0 mi NW 5.8 mph - 0.02 in Rain Light Rain
5:56 PM 54.9 °F 52.9 °F 93% 29.85 in 10.0 mi NW 3.5 mph - 0.00 in   Overcast
6:56 PM 52.9 °F 50.9 °F 93% 29.86 in 10.0 mi NNW 9.2 mph - 0.00 in   Overcast
7:56 PM 52.0 °F 48.9 °F 89% 29.88 in 10.0 mi NNW 5.8 mph - N/A   Mostly Cloudy
8:56 PM 50.0 °F 46.9 °F 89% 29.89 in 10.0 mi NNW 4.6 mph - N/A   Clear
9:56 PM 47.8 °F 45.9 °F 93% 29.89 in 10.0 mi Calm Calm - N/A   Clear
11:56 PM 47.8 °F 43.9 °F 86% 29.90 in 10.0 mi NNW 5.8 mph - N/A   Partly Cloudy